Location: Antin
(43.3330°N, 0.2804°E)
Time: 22:39:57
(UTC+00:00)

Cosmos 1703 - Pass Details

Date: 16 October 2021
Orbit: 521 x 539 km, 82.5° (Epoch: 04 December)

Event Time Altitude Azimuth Distance (km) Brightness Sun altitude
Rises 18:01:58 0° 0° (N) 2,697 6.8 -9.5°
Reaches altitude 10° 18:04:18 10° 10° (N) 1,798 5.8 -9.9°
Maximum altitude 18:07:53 33° 76° (ENE) 914 3.9 -10.5°
Drops below altitude 10° 18:11:26 10° 141° (SE) 1,774 5.6 -11.2°
Sets 18:13:43 0° 151° (SSE) 2,655 6.5 -11.6°
